Retour au catalogue

ARIANE 1 DEB

ActifSSO
NORAD 17203·DEBRIS·🇫🇷 France

Lancé Feb 22, 1986 depuis Guiana Space Centre

Loading…

Prochains Passages (prochaines 24 heures)

TLE

FraisSource: Space-Track

Époque: Sep 14, 2026, 00:46 UTC

1 17203U 86019BF  26257.03215247  .00000107  00000-0  81654-4 0  9999
2 17203  98.6094 276.2366 0127930 254.8502 131.2051 14.07869140 38443

Suivez ARIANE 1 DEB en temps réel avec AllMySat

Download on the App Store